Location: White Ridge parking lot
(35.4984°N, 106.8413°W)
Time: 01:31:03
(UTC-06:00)

ITAMSAT 1 - Pass Details

Date: 20 September 2019
Orbit: 784 x 797 km, 98.9° (Epoch: 15 October)

Event Time Altitude Azimuth Distance (km) Brightness Sun altitude
Rises 05:14:55 0° 33° (NNE) 3,277 11.7 -20.6°
Reaches altitude 10° 05:18:04 10° 54° (NE) 2,346 11.2 -20.0°
Maximum altitude 05:21:23 17° 94° (E) 1,898 10.5 -19.4°
Drops below altitude 10° 05:24:41 10° 134° (SE) 2,341 10.5 -18.7°
Sets 05:27:48 0° 154° (SSE) 3,267 11.0 -18.1°
